Retour au catalogue

STARLINK-5540

ActifCommunicationsSSO
NORAD 56340·PAYLOAD·🇺🇸 United States

Lancé Apr 27, 2023 depuis Vandenberg Space Force Base

Loading…

Prochains Passages (prochaines 24 heures)

TLE

FraisSource: CelesTrak SupGP

Époque: Sep 14, 2026, 20:59 UTC

1 56340C 23058Z   26257.87479167  .00064127  00000+0  19894-2 0  2576
2 56340  97.2849 254.7683 0001876  95.1731  27.0850 15.33426895    11

Suivez STARLINK-5540 en temps réel avec AllMySat

Download on the App Store